Dallas/Ft Worth, TX

2:17 PM CST on November 22, 2019 (GMT -0600)
Dallas-Fort Worth International

Weather History for KDFW - September, 2019

Change the Weather History Date:

Sunday, September 15, 2019

  Actual Average Record
Temperature  
Mean Temperature 87 °F 78 °F  
Max Temperature 98 °F 89 °F 100 °F (1980)
Min Temperature 76 °F 68 °F 51 °F (1993)
Degree Days  
Heating Degree Days 0 0  
Month to date heating degree days 0 0  
Since 1 July heating degree days 0 0  
Cooling Degree Days 22 13  
Month to date cooling degree days 319 235  
Year to date cooling degree days 2521 2417  
Growing Degree Days 37 (Base 50)    
Moisture  
Dew Point 64 °F    
Average Humidity 48    
Maximum Humidity 69    
Minimum Humidity 31    
Precipitation  
Precipitation 0.00 in 0.09 in 1.05 in (1955)
Month to date precipitation 0.00 1.40  
Year to date precipitation 27.13 25.51  
Sea Level Pressure  
Sea Level Pressure 30.01 in    
Wind  
Wind Speed 4 mph ()    
Max Wind Speed 14 mph    
Max Gust Speed 20 mph    
Visibility 10.0 miles    
Events      
T = Trace of Precipitation, MM = Missing Value Source: Averaged Metar Reports

Daily Weather History Graph

Daily Weather History Graph

Search for Another Location

Airport or City:

Astronomy

Sep. 15, 2019 Rise Set
Actual Time 7:11 AM CDT 7:34 PM CDT
Civil Twilight 6:46 AM CDT 7:59 PM CDT
Nautical Twilight 6:17 AM CDT 8:28 PM CDT
Astronomical Twilight 5:48 AM CDT 8:57 PM CDT
Moon 8:46 PM CDT (9/15) 8:21 AM CDT (9/15)
Length of Visible Light 13h 12m
Length of Day
12h 22m
Full, 98% of the Moon is Illuminated
Sep 15
Full
Sep 21
Last Quarter
Sep 28
New
Oct 5
First Quarter
Oct 13
Full

Hourly Weather History & Observations

Time (CDT) Temp. Heat Index Dew Point Humidity Pressure Visibility Wind Dir Wind Speed Gust Speed Precip Events Conditions
12:53 AM 82.0 °F 83.4 °F 64.0 °F 54% 30.04 in 10.0 mi East 3.5 mph - N/A   Clear
1:53 AM 82.9 °F 84.6 °F 64.9 °F 54% 30.04 in 10.0 mi East 5.8 mph - N/A   Clear
2:53 AM 82.0 °F 83.8 °F 64.9 °F 56% 30.04 in 10.0 mi East 4.6 mph - N/A   Clear
3:53 AM 80.1 °F 82.1 °F 66.0 °F 62% 30.03 in 10.0 mi ESE 4.6 mph - N/A   Clear
4:53 AM 79.0 °F - 66.0 °F 64% 30.03 in 10.0 mi Calm Calm - N/A   Clear
5:53 AM 78.1 °F - 66.0 °F 66% 30.03 in 10.0 mi ESE 4.6 mph - N/A   Clear
6:53 AM 77.0 °F - 66.0 °F 69% 30.04 in 10.0 mi SE 5.8 mph - N/A   Partly Cloudy
7:53 AM 77.0 °F - 66.0 °F 69% 30.05 in 10.0 mi SE 3.5 mph - N/A   Partly Cloudy
8:53 AM 81.0 °F 83.0 °F 66.0 °F 60% 30.05 in 10.0 mi SE 3.5 mph - N/A   Partly Cloudy
9:53 AM 86.0 °F 88.2 °F 66.0 °F 51% 30.05 in 10.0 mi Variable 3.5 mph - N/A   Partly Cloudy
10:53 AM 89.1 °F 91.3 °F 66.0 °F 46% 30.06 in 10.0 mi ENE 5.8 mph - N/A   Partly Cloudy
11:53 AM 91.9 °F 94.1 °F 64.9 °F 41% 30.05 in 10.0 mi Calm Calm - N/A   Partly Cloudy
12:53 PM 93.0 °F 95.0 °F 64.9 °F 39% 30.03 in 10.0 mi SSE 4.6 mph - N/A   Partly Cloudy
1:53 PM 95.0 °F 96.0 °F 63.0 °F 34% 30.01 in 10.0 mi Calm Calm - N/A   Partly Cloudy
2:53 PM 96.1 °F 96.9 °F 62.1 °F 32% 29.99 in 10.0 mi ESE 9.2 mph - N/A   Partly Cloudy
3:53 PM 97.0 °F 98.3 °F 63.0 °F 32% 29.96 in 10.0 mi Variable 6.9 mph - N/A   Partly Cloudy
4:53 PM 97.0 °F 97.8 °F 62.1 °F 31% 29.95 in 10.0 mi East 11.5 mph 19.6 mph N/A   Partly Cloudy
5:53 PM 95.0 °F 95.6 °F 62.1 °F 33% 29.95 in 10.0 mi East 9.2 mph - N/A   Partly Cloudy
6:53 PM 91.9 °F 91.5 °F 60.1 °F 34% 29.96 in 10.0 mi East 6.9 mph - N/A   Partly Cloudy
7:53 PM 90.0 °F 91.3 °F 64.0 °F 42% 29.96 in 10.0 mi East 8.1 mph - N/A   Partly Cloudy
8:53 PM 88.0 °F 89.6 °F 64.9 °F 46% 29.97 in 10.0 mi East 6.9 mph - N/A   Partly Cloudy
9:53 PM 86.0 °F 87.6 °F 64.9 °F 49% 29.98 in 10.0 mi ESE 5.8 mph - N/A   Clear
10:53 PM 86.0 °F 87.6 °F 64.9 °F 49% 29.99 in 10.0 mi East 4.6 mph - N/A   Clear
11:53 PM 84.9 °F 86.6 °F 64.9 °F 51% 29.99 in 10.0 mi East 3.5 mph - N/A   Clear